Lexington Weather

Lexington, Massachusetts, USA

32°F
12/8/2019 4:44pm 
  • Lexington Conditions: Mostly cloudy
  • Temperature: 32.2°F / 0.1°CColder 0.9°F than last hour.
  • Dew Point: 19.0°FIncreased 1.6°Fsince last hour.
  • Relative Humidity: 58%Increased 6.0% since last hour.
  • Wind: Wind from S S 2 mph, 10-min avg: 2 mph, gust: 6 mph
  • Barometer: 30.41 in Steady
  • Visibility: 10 miles
  • Snow Today: 0.0 in
  •   

Regional Weather Roundup
for Boston / Norton, MA

        
000
ASUS41 KBOX 072000
RWRBOX

REGIONAL WEATHER ROUNDUP
NATIONAL WEATHER SERVICE BOSTON/NORTON MA
300 PM EST SAT DEC 07 2019

NOTE:  "FAIR" INDICATES FEW OR NO CLOUDS BELOW 12,000 FEET WITH NO 
SIGNIFICANT WEATHER AND/OR OBSTRUCTIONS TO VISIBILITY.

MAZALL-072100-
EASTERN MASSACHUSETTS
  
CITY           SKY/WX    TMP DP  RH WIND       PRES   REMARKS
BOSTON         FAIR      34  13  41 W13       30.32R WCI  25          
BEVERLY        FAIR      32  14  47 NW10      30.30R WCI  24          
LAWRENCE       FAIR      30  13  49 NW10      30.33R WCI  21          
BEDFORD        FAIR      31  10  41 W10       30.31R WCI  22          
BLUE HILL        N/A     29  14  53 W15G23    30.27R WCI  18          
NORWOOD        FAIR      35  14  42 NW13G20   30.32R WCI  26          
MARSHFIELD     NOT AVBL                                               
PLYMOUTH       FAIR      33  16  49 NW10      30.30R WCI  25          
TAUNTON        FAIR      35  13  40 NW8       30.31R WCI  29          
NEW BEDFORD    FAIR      35  14  42 NW8       30.31R WCI  29          
$$

MAZALL-072100-
CAPE COD AND THE ISLANDS
  
CITY           SKY/WX    TMP DP  RH WIND       PRES   REMARKS
FALMOUTH       CLEAR     34  14  44 NW10      30.30R WCI  26          
HYANNIS        NOT AVBL                                               
CHATHAM        FAIR      33  20  58 W5        30.31R WCI  29          
PROVINCETOWN   FAIR      32  19  58 NW13G18   30.32R WCI  22          
NANTUCKET      FAIR      35  18  49 NW9       30.31R WCI  28          
MARTHAS VNYRD  FAIR      36  14  40 NW9       30.31R WCI  29          
$$
 
MAZALL-072100-
CENTRAL AND WESTERN MASSACHUSETTS
  
CITY           SKY/WX    TMP DP  RH WIND       PRES   REMARKS
WORCESTER      FAIR      26  11  52 W16       30.27R WCI  14          
FITCHBURG      CLOUDY    29  14  53 NW9       30.32R WCI  20          
ORANGE         PTSUNNY   30  11  45 W8G20     30.33R WCI  22          
SPRINGFIELD    PTSUNNY   29  11  46 NW17      30.33R WCI  18          
WESTFIELD      FAIR      31  12  45 NW13      30.34R WCI  21          
NORTH ADAMS    CLOUDY    27  13  55 NW7G18    30.33R WCI  19          
PITTSFIELD     PTSUNNY   27  12  53 NW12      30.28R WCI  17          
$$
 
RIZALL-072100-
RHODE ISLAND
  
CITY           SKY/WX    TMP DP  RH WIND       PRES   REMARKS
PROVIDENCE     FAIR      34  15  46 NW12      30.33R WCI  25          
NEWPORT        FAIR      36  15  42 W8        30.31R WCI  30          
BLOCK ISLAND   FAIR      34  16  47 NW9       30.33R WCI  27          
SMITHFIELD     FAIR      31  15  52 NW12G18   30.31R WCI  22          
WESTERLY       FAIR      37  12  35 N13       30.34R WCI  29          
$$
 
CTZALL-072100-
CONNECTICUT
  
CITY           SKY/WX    TMP DP  RH WIND       PRES   REMARKS
BRADLEY INTL   FAIR      34  13  41 NW12      30.34R WCI  25          
HARTFORD       FAIR      34  13  41 NW10      30.35R WCI  26          
BRIDGEPORT     FAIR      38  16  40 W13       30.35R WCI  30          
DANBURY        FAIR      34  16  47 N8        30.34S WCI  27          
GROTON         NOT AVBL                                               
NEW HAVEN      PTSUNNY   39  16  39 NW12      30.35R WCI  32          
CHESTER        FAIR      36  10  35 NW10      30.33R WCI  28          
MERIDEN        FAIR      34  14  43 NW14      30.35R WCI  25          
WILLIMANTIC    FAIR      32  12  43 NW10G23   30.35R WCI  24          
OXFORD         FAIR      32  17  54 NW9       30.32R WCI  24          
$$

MEZ002-015-021-024-NHZ003-005-008-011-012-014-VTZ005-008-072100-
NORTHERN NEW ENGLAND
  
CITY           SKY/WX    TMP DP  RH WIND       PRES   REMARKS
PORTLAND ME    FAIR      33  12  41 N5        30.29R WCI  29          
BANGOR ME      FAIR      25   8  48 NW9       30.26R WCI  15          
CONCORD NH     MOCLDY    26  12  55 NW9       30.31R WCI  17          
MANCHESTER NH  MOCLDY    30  12  47 NW12      30.30R WCI  20          
NASHUA NH      FAIR      29  17  61 W8G16     30.32R WCI  21          
PORTSMOUTH NH  PTCLDY    30  10  44 W14       30.29R WCI  19          
JAFFREY NH     FAIR      26   9  48 W12G21    30.27R WCI  16          
KEENE NH       FAIR      27  13  55 W9        30.33R WCI  18          
BURLINGTON VT  MOCLDY    25  15  66 N6        30.35R WCI  18          
MT. WASHINGTON SNOWSHWR  -2  -2 100 W41         N/A  VSB 1/16WCI -32  
$$

NYZ052-076-072100-
EASTERN NEW YORK
  
CITY           SKY/WX    TMP DP  RH WIND       PRES   REMARKS
ALBANY         PTSUNNY   30  12  47 NW15      30.38R WCI  19          
NEW YORK CITY  FAIR      38  14  37 NW14      30.36S WCI  30          
$$
 
ANZALL-072100-
MARINE OBSERVATIONS
  
STATION/POSITION TIME  TEMP    WIND        PRES    VSBY  WAVE
                       AIR SEA DIR/SP/G                  HT/PER
                 (UTC) (F)     (DEG/KT/KT) (MB)    (MI)  (FT/S)
BOSTON BUOY      1850   33 47  310/ 12/ 16 1025.3          2/ 3
BUZZARDS BAY     1900   34     330/ 14/ 16 1026.4R
NANTUCKET SOUND  1930   33 44                N/A
MASS BAY-STELLWA 1904   32 46  320/ 12/ 16 1024.1R  1 7/8  2/ 5
ISLE OF SHOALS   1900   30     290/ 15/ 18 1024.9R
S OF BLOCK IS    1930      52                N/A           3/ 4
$$

......................KEY.........................
  SKY/WX - SKY CONDITION/PRESENT WEATHER
  TMP    - TEMPERATURE IN FAHRENHEIT
  DWPT   - DEWPOINT IN FAHRENHEIT
  RH     - RELATIVE HUMIDITY IN PERCENT
  WIND   - DIRECTION AND SPEED IN MPH
  PRES   - MEAN SEA LEVEL PRESSURE IN INCHES OF HG
  WCI    - WIND CHILL INDEX
  VSB    - VISIBILITY IN MILES
  HX     - HEAT INDEX
  TC     - TEMPERATURE IN CELSIUS
  VRB    - VARIABLE WIND DIRECTION
  N/A    - NOT AVAILABLE
  
      

Other recent Regional Weather Roundups

Sun Dec 8, 4:10pm

Sun Dec 8, 4:01pm

Sun Dec 8, 3:10pm

Sun Dec 8, 3:01pm

Sun Dec 8, 2:10pm

Sun Dec 8, 2:01pm

Sun Dec 8, 1:10pm

Sun Dec 8, 1:00pm

Sun Dec 8, 12:10pm

Sun Dec 8, 12:01pm

Sun Dec 8, 11:10am

Sun Dec 8, 11:00am

Sun Dec 8, 10:10am

Sun Dec 8, 10:01am

Sun Dec 8, 9:10am

Sun Dec 8, 9:00am

Sun Dec 8, 8:10am

Sun Dec 8, 8:00am

Sun Dec 8, 7:10am

Sun Dec 8, 7:00am

Sun Dec 8, 6:10am

Sun Dec 8, 6:00am

Sun Dec 8, 5:10am

Sun Dec 8, 5:00am

Sun Dec 8, 4:10am

Sun Dec 8, 4:00am

Sun Dec 8, 3:10am

Sun Dec 8, 3:00am

Sun Dec 8, 2:10am

Sun Dec 8, 2:00am

Sun Dec 8, 1:10am

Sun Dec 8, 1:00am

Sun Dec 8, 12:10am

Sun Dec 8, 12:01am

Sat Dec 7, 11:10pm

Sat Dec 7, 11:00pm

Sat Dec 7, 10:10pm

Sat Dec 7, 10:00pm

Sat Dec 7, 9:10pm

Sat Dec 7, 9:00pm

Sat Dec 7, 8:10pm

Sat Dec 7, 8:00pm

Sat Dec 7, 7:10pm

Sat Dec 7, 7:00pm

Sat Dec 7, 6:10pm

Sat Dec 7, 6:00pm

Sat Dec 7, 5:10pm

Sat Dec 7, 5:00pm

Sat Dec 7, 4:10pm

Sat Dec 7, 4:00pm

Sat Dec 7, 3:10pm

Sat Dec 7, 2:10pm

Sat Dec 7, 2:01pm

Sat Dec 7, 1:10pm

Sat Dec 7, 1:00pm

Sat Dec 7, 12:10pm

Sat Dec 7, 12:01pm

Sat Dec 7, 11:10am

Sat Dec 7, 11:00am

Sat Dec 7, 10:10am

Sat Dec 7, 10:01am

Sat Dec 7, 9:10am

Sat Dec 7, 9:00am

Sat Dec 7, 8:10am

Sat Dec 7, 8:00am

Sat Dec 7, 7:10am

Sat Dec 7, 7:00am

Sat Dec 7, 6:10am

Sat Dec 7, 6:00am

Sat Dec 7, 5:10am

Sat Dec 7, 5:00am

Sat Dec 7, 4:10am

Sat Dec 7, 4:00am

Sat Dec 7, 3:10am

Sat Dec 7, 3:00am

Sat Dec 7, 2:10am

Sat Dec 7, 2:01am

Sat Dec 7, 1:10am

Sat Dec 7, 1:00am

Sat Dec 7, 12:10am

Sat Dec 7, 12:01am

Fri Dec 6, 11:10pm

Fri Dec 6, 11:00pm

Fri Dec 6, 10:10pm

Fri Dec 6, 10:00pm

Fri Dec 6, 9:10pm

Fri Dec 6, 9:00pm

Fri Dec 6, 8:10pm

Fri Dec 6, 8:00pm

Fri Dec 6, 7:10pm

Fri Dec 6, 7:01pm

Fri Dec 6, 6:10pm

Fri Dec 6, 6:00pm

Fri Dec 6, 5:10pm

Fri Dec 6, 5:00pm

Fri Dec 6, 4:10pm

Fri Dec 6, 4:00pm

Fri Dec 6, 3:10pm

Fri Dec 6, 3:00pm

Fri Dec 6, 2:10pm

Fri Dec 6, 2:00pm

Fri Dec 6, 1:10pm

Fri Dec 6, 1:00pm

Fri Dec 6, 12:10pm

Fri Dec 6, 12:00pm

Fri Dec 6, 11:10am

Fri Dec 6, 11:00am

Fri Dec 6, 10:10am

Fri Dec 6, 10:00am

Fri Dec 6, 9:10am

Fri Dec 6, 9:00am

Fri Dec 6, 8:10am

Fri Dec 6, 8:00am

Fri Dec 6, 7:10am

Fri Dec 6, 7:00am

Fri Dec 6, 6:10am

Fri Dec 6, 6:01am

Fri Dec 6, 5:10am

Fri Dec 6, 5:00am

Fri Dec 6, 4:10am

Fri Dec 6, 4:00am

Fri Dec 6, 3:10am

Fri Dec 6, 3:00am

Fri Dec 6, 2:10am

Fri Dec 6, 2:00am

Fri Dec 6, 1:10am

Fri Dec 6, 1:00am

Fri Dec 6, 12:10am

Fri Dec 6, 12:00am

Thu Dec 5, 11:10pm

Thu Dec 5, 11:00pm

Thu Dec 5, 10:10pm

Thu Dec 5, 10:01pm

Thu Dec 5, 9:10pm

Thu Dec 5, 9:01pm

Thu Dec 5, 8:10pm

Thu Dec 5, 8:00pm

Thu Dec 5, 7:10pm

Thu Dec 5, 7:00pm

Thu Dec 5, 6:10pm

Thu Dec 5, 6:00pm

Thu Dec 5, 5:10pm

Thu Dec 5, 5:00pm

Meta data:

ID: 81f9f11a-c136-4428-8e46-eea5a142f360
Link: https://api.weather.gov/products/81f9f11a-c136-4428-8e46-eea5a142f360